This demonstration page uses our WeatherBlox Daily Observations layout. Learn more.

Left ArrowRight Arrow

Hourly Observations for September 25, 2022

Temp ( °F °C ) Dew Point ( °F °C ) Humidity (%) Winds ( mph kmh ) Pressure ( in mb ) Visibility ( mi km ) Precip ( " mm )
12:52 am 00:52 Clear 60 15.6 54 12.2 80 80 NNW 3 6 29.98 1015 10 16 0.00 0.00
1:52 am 01:52 Clear 57 13.9 52 11.1 83 83 NNW 3 6 29.99 1016 10 16 0.00 0.00
2:52 am 02:52 Clear 58 14.4 49 9.4 72 72 WNW 3 6 30.01 1016 10 16 0.00 0.00
3:52 am 03:52 Clear 55 12.8 48 8.9 77 77 NNW 6 9 30.02 1017 10 16 0.00 0.00
4:52 am 04:52 Clear 54 12.2 47 8.3 77 77 WNW 5 7 30.03 1017 10 16 0.00 0.00
5:52 am 05:52 Clear 56 13.3 46 7.8 69 69 WNW 8 13 30.04 1017 10 16 0.00 0.00
6:52 am 06:52 Clear 53 11.7 46 7.8 77 77 NNW 5 7 30.07 1018 10 16 0.00 0.00
7:52 am 07:52 Sunny 53 11.7 46 7.8 77 77 NW 7 11 30.09 1019 10 16 0.00 0.00
8:52 am 08:52 Sunny 58 14.4 47 8.3 67 67 WNW 10 17 30.09 1019 10 16 0.00 0.00
9:52 am 09:52 Sunny 65 18.3 48 8.9 54 54 NW 8 13 30.10 1019 10 16 0.00 0.00
10:52 am 10:52 Sunny 69 20.6 46 7.8 44 44 WNW 15 24 30.11 1020 10 16 0.00 0.00
11:52 am 11:52 Sunny 73 22.8 43 6.1 34 34 NW 17 28 30.10 1019 10 16 0.00 0.00
12:52 pm 12:52 Sunny 76 24.4 41 5 29 29 NNW 21 33 30.09 1019 10 16 0.00 0.00
1:52 pm 13:52 Mostly Sunny 77 25 39 3.9 25 25 WNW 26 43 30.07 1018 10 16 0.00 0.00
2:52 pm 14:52 Mostly Sunny 78 25.6 39 3.9 25 25 NNW 23 37 30.05 1018 10 16 0.00 0.00
3:52 pm 15:52 Mostly Sunny 78 25.6 40 4.4 25 25 NW 21 33 30.04 1017 10 16 0.00 0.00
4:52 pm 16:52 Mostly Sunny 78 25.6 38 3.3 24 24 NW 24 39 30.03 1017 10 16 0.00 0.00
5:52 pm 17:52 Sunny 76 24.4 37 2.8 24 24 NW 18 30 30.02 1017 10 16 0.00 0.00
6:52 pm 18:52 Mostly Sunny 72 22.2 37 2.8 28 28 NNW 13 20 30.03 1017 10 16 0.00 0.00
7:52 pm 19:52 Mostly Clear 67 19.4 37 2.8 33 33 NNW 9 15 30.04 1017 10 16 0.00 0.00
8:52 pm 20:52 Clear 58 14.4 38 3.3 47 47 N 8 13 30.06 1018 10 16 0.00 0.00
9:52 pm 21:52 Clear 55 12.8 38 3.3 52 52 N 8 13 30.09 1019 10 16 0.00 0.00
10:52 pm 22:52 Clear 53 11.7 40 4.4 61 61 N 5 7 30.10 1019 10 16 0.00 0.00
11:52 pm 23:52 Clear 53 11.7 39 3.9 59 59 N 5 7 30.10 1019 10 16 0.00 0.00

Powered by AerisWeather